Total_Precipitation_Accumulation
0.24 0.28 0.36 0.43 0.38 0.24 0.08 0.02 0.00 0.01 0.01 0.03 0.02 0.02 0.02 0.03 0.06 0.09 0.08 0.07 0.09 0.12 0.18 0.36 0.51 0.63 0.70 0.73 0.73 0.73 0.72 0.74 0.82 0.85 0.88 0.94 0.98 1.03 1.12 1.17 1.19 1.24 1.33 1.35 1.36 1.31 1.27 1.17 1.07
0.24 0.36 0.47 0.55 0.34 0.14 0.04 0.01 0.01 0.01 0.02 0.03 0.02 0.02 0.02 0.04 0.05 0.05 0.06 0.07 0.09 0.11 0.17 0.31 0.51 0.65 0.74 0.76 0.78 0.77 0.77 0.80 0.88 0.92 0.93 0.98 1.04 1.09 1.14 1.17 1.21 1.21 1.24 1.32 1.30 1.28 1.26 1.20 1.11
0.36 0.50 0.55 0.56 0.32 0.09 0.02 0.01 0.01 0.02 0.03 0.04 0.03 0.03 0.03 0.04 0.04 0.06 0.07 0.07 0.10 0.12 0.17 0.33 0.56 0.71 0.82 0.86 0.84 0.84 0.86 0.90 0.98 1.01 1.07 1.10 1.16 1.16 1.18 1.15 1.16 1.15 1.10 1.14 1.14 1.21 1.24 1.19 1.09
0.54 0.71 0.68 0.52 0.23 0.08 0.03 0.01 0.01 0.02 0.03 0.04 0.03 0.03 0.04 0.04 0.04 0.07 0.08 0.08 0.12 0.16 0.23 0.38 0.61 0.80 0.92 0.94 0.91 0.91 0.98 1.04 1.10 1.14 1.19 1.25 1.30 1.28 1.24 1.18 1.17 1.11 1.09 1.10 1.10 1.15 1.20 1.15 1.06
0.70 0.82 0.74 0.46 0.16 0.05 0.02 0.02 0.02 0.03 0.03 0.04 0.04 0.05 0.05 0.05 0.05 0.09 0.12 0.13 0.16 0.22 0.32 0.45 0.70 0.95 1.05 1.09 1.07 1.07 1.15 1.21 1.23 1.22 1.31 1.39 1.40 1.36 1.29 1.23 1.18 1.18 1.17 1.16 1.13 1.15 1.21 1.12 1.02
0.87 0.88 0.64 0.33 0.11 0.04 0.03 0.02 0.03 0.04 0.04 0.04 0.05 0.07 0.07 0.08 0.10 0.13 0.15 0.16 0.18 0.26 0.39 0.56 0.88 1.05 1.12 1.20 1.22 1.21 1.29 1.36 1.37 1.40 1.51 1.56 1.49 1.42 1.41 1.31 1.23 1.27 1.27 1.22 1.18 1.17 1.19 1.11 1.03
0.92 0.80 0.48 0.23 0.11 0.06 0.05 0.04 0.05 0.06 0.06 0.05 0.05 0.07 0.09 0.14 0.18 0.21 0.22 0.25 0.31 0.40 0.54 0.67 0.91 1.08 1.23 1.36 1.41 1.38 1.44 1.49 1.47 1.58 1.62 1.61 1.56 1.49 1.47 1.40 1.28 1.30 1.31 1.34 1.27 1.18 1.08 1.03 1.01
0.94 0.89 0.49 0.26 0.16 0.10 0.07 0.07 0.07 0.07 0.07 0.09 0.09 0.10 0.10 0.16 0.21 0.28 0.34 0.39 0.47 0.57 0.68 0.83 0.97 1.12 1.27 1.44 1.56 1.61 1.63 1.66 1.70 1.70 1.62 1.59 1.65 1.67 1.61 1.45 1.36 1.31 1.32 1.35 1.34 1.24 1.11 1.01 0.97
1.06 1.08 0.57 0.26 0.19 0.14 0.10 0.11 0.07 0.08 0.10 0.13 0.13 0.10 0.13 0.18 0.25 0.39 0.52 0.60 0.66 0.77 0.85 1.04 1.14 1.22 1.37 1.50 1.58 1.83 1.95 1.98 1.97 1.91 1.75 1.75 1.76 1.72 1.64 1.46 1.36 1.29 1.31 1.30 1.36 1.35 1.25 1.12 1.03
1.18 0.93 0.47 0.23 0.20 0.18 0.15 0.14 0.11 0.13 0.17 0.17 0.16 0.15 0.20 0.28 0.34 0.42 0.51 0.60 0.69 0.76 0.93 1.12 1.34 1.44 1.56 1.63 1.76 1.96 2.06 2.16 2.15 1.84 1.82 1.86 1.72 1.66 1.59 1.58 1.55 1.40 1.38 1.37 1.34 1.37 1.35 1.23 1.04
0.99 0.66 0.34 0.24 0.22 0.24 0.22 0.19 0.17 0.18 0.20 0.19 0.20 0.22 0.29 0.37 0.42 0.46 0.51 0.60 0.73 0.79 0.94 1.17 1.44 1.66 1.78 1.75 1.72 1.87 2.03 2.11 2.16 1.87 1.71 1.72 1.78 1.78 1.74 1.61 1.62 1.57 1.48 1.50 1.43 1.40 1.29 1.15 1.06
0.74 0.48 0.34 0.30 0.27 0.31 0.30 0.26 0.24 0.20 0.17 0.20 0.23 0.26 0.35 0.42 0.47 0.51 0.55 0.60 0.75 0.90 1.01 1.22 1.47 1.75 1.88 1.93 1.85 1.83 1.93 1.98 2.02 1.93 1.83 1.74 1.75 1.71 1.59 1.52 1.42 1.39 1.32 1.33 1.35 1.26 1.17 1.09 1.02
0.60 0.43 0.34 0.32 0.34 0.37 0.38 0.34 0.28 0.20 0.16 0.23 0.30 0.32 0.41 0.44 0.52 0.62 0.66 0.68 0.76 0.93 1.07 1.31 1.52 1.76 2.01 2.13 2.11 2.02 2.04 1.86 1.91 2.02 2.05 1.89 1.73 1.65 1.58 1.48 1.43 1.37 1.30 1.25 1.22 1.14 1.08 1.03 0.99
0.51 0.45 0.37 0.32 0.35 0.40 0.45 0.42 0.35 0.23 0.20 0.31 0.36 0.38 0.45 0.49 0.59 0.69 0.76 0.76 0.78 0.92 1.09 1.38 1.61 1.76 2.05 2.20 2.18 2.16 2.21 2.10 2.08 2.07 2.04 2.07 1.96 1.75 1.71 1.63 1.47 1.38 1.32 1.26 1.25 1.19 1.12 1.05 0.98
0.52 0.60 0.50 0.38 0.36 0.41 0.52 0.57 0.39 0.25 0.27 0.38 0.45 0.47 0.51 0.54 0.65 0.74 0.82 0.85 0.83 0.93 1.12 1.40 1.64 1.85 2.04 2.11 2.18 2.22 2.25 2.25 2.19 2.14 2.14 2.18 2.09 1.97 1.83 1.78 1.67 1.49 1.41 1.39 1.34 1.33 1.26 1.19 1.06
0.80 0.97 0.81 0.47 0.38 0.45 0.66 0.63 0.32 0.26 0.34 0.39 0.50 0.51 0.55 0.56 0.63 0.77 0.93 1.03 0.99 1.04 1.13 1.33 1.61 1.80 2.00 2.13 2.16 2.15 2.24 2.28 2.30 2.33 2.28 2.25 2.27 2.22 2.15 1.95 1.81 1.61 1.56 1.53 1.49 1.42 1.38 1.28 1.17
1.18 1.11 0.77 0.50 0.41 0.52 0.70 0.57 0.30 0.29 0.39 0.43 0.52 0.57 0.58 0.62 0.64 0.75 0.95 1.09 1.11 1.12 1.20 1.38 1.59 1.72 1.90 2.15 2.29 2.21 2.21 2.30 2.37 2.38 2.42 2.31 2.32 2.35 2.38 2.33 2.12 1.90 1.79 1.67 1.57 1.46 1.40 1.36 1.27
1.03 0.79 0.59 0.49 0.46 0.52 0.61 0.49 0.34 0.31 0.39 0.45 0.52 0.58 0.58 0.66 0.64 0.71 0.90 1.12 1.19 1.23 1.31 1.42 1.59 1.76 1.92 2.25 2.44 2.50 2.39 2.37 2.37 2.31 2.27 2.29 2.29 2.28 2.30 2.38 2.38 2.26 2.14 1.98 1.82 1.69 1.52 1.40 1.35
0.66 0.71 0.60 0.41 0.39 0.53 0.54 0.45 0.34 0.32 0.38 0.46 0.50 0.57 0.55 0.62 0.68 0.75 0.86 1.04 1.24 1.30 1.34 1.49 1.55 1.71 1.93 2.17 2.34 2.37 2.42 2.36 2.31 2.22 2.16 2.11 2.14 2.16 2.16 2.11 2.22 2.26 2.19 2.06 1.97 1.88 1.81 1.66 1.51
0.78 0.86 0.67 0.46 0.38 0.57 0.57 0.48 0.35 0.35 0.40 0.47 0.48 0.56 0.59 0.61 0.70 0.80 0.90 1.04 1.29 1.36 1.36 1.49 1.61 1.71 1.76 1.89 2.07 2.18 2.32 2.38 2.35 2.26 2.25 2.15 2.07 2.04 2.13 2.12 2.03 2.05 2.07 2.04 1.97 1.90 1.85 1.79 1.66
0.87 0.78 0.64 0.58 0.54 0.63 0.71 0.68 0.42 0.38 0.36 0.43 0.48 0.56 0.66 0.70 0.73 0.79 0.89 1.02 1.29 1.45 1.46 1.49 1.57 1.72 1.79 1.90 2.12 2.26 2.47 2.56 2.59 2.41 2.27 2.21 2.17 2.05 2.01 2.12 2.11 2.01 1.97 1.95 1.91 1.83 1.75 1.75 1.63
0.92 0.53 0.55 0.63 0.95 1.07 0.90 1.05 0.53 0.39 0.37 0.43 0.51 0.54 0.68 0.73 0.74 0.80 0.82 0.95 1.15 1.33 1.46 1.53 1.64 1.75 1.78 1.96 2.15 2.17 2.33 2.39 2.33 2.22 2.15 2.10 2.13 2.11 2.02 2.01 2.08 2.11 1.99 1.87 1.84 1.85 1.79 1.81 1.81
0.76 0.49 0.62 0.78 1.07 1.25 0.92 1.02 0.59 0.34 0.42 0.44 0.50 0.53 0.62 0.72 0.70 0.78 0.81 0.81 0.95 1.12 1.33 1.49 1.68 1.83 1.85 1.89 2.07 2.13 2.09 2.17 2.27 2.32 2.26 2.18 2.14 2.10 2.06 2.03 2.02 2.03 2.00 1.87 1.80 1.83 1.86 1.87 1.86
0.70 0.81 1.00 1.16 1.68 1.95 0.81 0.78 0.63 0.53 0.62 0.52 0.49 0.55 0.64 0.71 0.75 0.77 0.76 0.76 0.88 1.04 1.22 1.40 1.59 1.75 1.86 1.84 1.94 2.10 2.07 2.05 2.16 2.34 2.39 2.30 2.21 2.14 2.02 1.95 1.96 1.93 1.83 1.79 1.74 1.72 1.71 1.74 1.78
1.10 1.69 2.52 2.67 2.64 1.60 0.46 0.61 0.72 0.55 0.54 0.62 0.61 0.63 0.66 0.69 0.77 0.82 0.71 0.75 0.81 0.93 1.11 1.28 1.50 1.60 1.72 1.77 1.82 1.88 2.01 2.00 1.99 2.03 2.13 2.28 2.24 2.12 2.03 1.94 1.86 1.83 1.75 1.66 1.64 1.65 1.63 1.57 1.60
1.19 1.50 2.05 2.02 1.37 0.64 0.37 0.60 0.65 0.46 0.41 0.43 0.48 0.59 0.63 0.66 0.71 0.76 0.73 0.75 0.79 0.83 0.96 1.14 1.27 1.47 1.64 1.73 1.75 1.77 1.84 1.97 1.91 1.90 1.86 1.98 2.05 1.93 1.86 1.92 1.84 1.77 1.74 1.72 1.69 1.64 1.61 1.60 1.52
1.08 1.19 1.07 1.47 1.04 0.72 0.58 0.53 0.44 0.24 0.25 0.31 0.38 0.51 0.66 0.73 0.76 0.74 0.74 0.77 0.76 0.83 0.90 1.05 1.14 1.30 1.52 1.70 1.75 1.75 1.78 1.84 1.85 1.82 1.81 1.82 1.84 1.86 1.84 1.84 1.82 1.76 1.79 1.83 1.84 1.79 1.65 1.60 1.57
0.85 1.04 1.31 1.89 1.60 0.92 0.58 0.54 0.62 0.43 0.42 0.38 0.43 0.53 0.67 0.77 0.84 0.81 0.77 0.83 0.82 0.84 0.90 0.96 1.10 1.20 1.36 1.58 1.77 1.78 1.73 1.71 1.78 1.84 1.87 1.83 1.79 1.82 1.84 1.83 1.84 1.78 1.72 1.78 1.86 1.81 1.70 1.69 1.62
0.96 1.29 1.60 1.70 1.33 1.10 0.75 0.72 0.73 0.64 0.61 0.55 0.53 0.58 0.69 0.79 0.87 0.82 0.75 0.77 0.82 0.84 0.93 0.98 1.07 1.17 1.29 1.40 1.58 1.71 1.72 1.72 1.76 1.79 1.76 1.80 1.79 1.79 1.77 1.72 1.75 1.81 1.79 1.73 1.79 1.75 1.69 1.69 1.62
0.82 1.13 1.41 1.76 1.28 0.84 0.79 0.75 0.57 0.53 0.57 0.53 0.52 0.54 0.60 0.71 0.77 0.78 0.71 0.72 0.78 0.87 0.94 1.03 1.07 1.07 1.17 1.29 1.41 1.55 1.66 1.70 1.74 1.71 1.71 1.76 1.78 1.76 1.69 1.66 1.67 1.71 1.74 1.72 1.74 1.73 1.68 1.66 1.63